Hutchinson, KS

8:29 AM CDT on September 19, 2019 (GMT -0500)
Hutchinson Municipal

Weather History for KHUT - July, 2019

Change the Weather History Date:

Thursday, July 18, 2019

  Actual Average Record
Temperature  
Mean Temperature 90 °F -  
Max Temperature 102 °F 91 °F 107 °F (2006)
Min Temperature 78 °F 66 °F 60 °F (2004)
Cooling Degree Days 25    
Growing Degree Days 40 (Base 50)    
Moisture  
Dew Point 68 °F    
Average Humidity 51    
Maximum Humidity 71    
Minimum Humidity 32    
Precipitation  
Precipitation 0.00 in - - ()
Sea Level Pressure  
Sea Level Pressure 29.72 in    
Wind  
Wind Speed 17 mph (South)    
Max Wind Speed 26 mph    
Max Gust Speed 34 mph    
Visibility 10 miles    
Events      
Averages and records for this station are not official NWS values.
T = Trace of Precipitation, MM = Missing Value Source: NWS Daily Summary

Daily Weather History Graph

Daily Weather History Graph

Search for Another Location

Airport or City:

Astronomy

Jul. 18, 2019 Rise Set
Actual Time 6:22 AM CDT 8:52 PM CDT
Civil Twilight 5:52 AM CDT 9:22 PM CDT
Nautical Twilight 5:14 AM CDT 10:00 PM CDT
Astronomical Twilight 4:32 AM CDT 10:41 PM CDT
Moon 10:19 PM CDT (7/18) 7:52 AM CDT (7/18)
Length of Visible Light 15h 30m
Length of Day
14h 29m
Full, 97% of the Moon is Illuminated
Jul 18
Full
Jul 24
Last Quarter
Jul 31
New
Aug 7
First Quarter
Aug 15
Full

Hourly Weather History & Observations

Time (CDT) Temp. Heat Index Dew Point Humidity Pressure Visibility Wind Dir Wind Speed Gust Speed Precip Events Conditions
12:52 AM 84.0 °F 87.8 °F 69.1 °F 61% 29.76 in 10.0 mi South 19.6 mph 29.9 mph N/A   Clear
1:52 AM 82.9 °F 85.8 °F 68.0 °F 60% 29.78 in 10.0 mi South 15.0 mph 25.3 mph N/A   Clear
2:52 AM 82.0 °F 84.9 °F 68.0 °F 62% 29.80 in 10.0 mi South 10.4 mph - N/A   Clear
3:52 AM 79.0 °F - 68.0 °F 69% 29.77 in 10.0 mi South 8.1 mph - N/A   Clear
4:52 AM 78.1 °F - 68.0 °F 71% 29.75 in 10.0 mi South 11.5 mph - N/A   Clear
5:52 AM 78.1 °F - 68.0 °F 71% 29.78 in 10.0 mi South 9.2 mph - N/A   Clear
6:52 AM 78.1 °F - 68.0 °F 71% 29.78 in 10.0 mi South 11.5 mph - N/A   Clear
7:52 AM 78.1 °F - 68.0 °F 71% 29.79 in 10.0 mi SSW 10.4 mph - N/A   Clear
8:52 AM 82.9 °F 86.5 °F 69.1 °F 63% 29.74 in 10.0 mi South 23.0 mph 33.4 mph N/A   Clear
10:52 AM 91.0 °F 94.3 °F 66.9 °F 45% 29.73 in 10.0 mi SSW 26.5 mph 34.5 mph N/A   Clear
11:52 AM 95.0 °F 99.5 °F 68.0 °F 41% 29.72 in 10.0 mi SSW 23.0 mph 29.9 mph N/A   Clear
12:52 PM 97.0 °F 102.2 °F 68.0 °F 39% 29.70 in 10.0 mi SSW 19.6 mph 32.2 mph N/A   Clear
1:52 PM 100.0 °F 107.0 °F 69.1 °F 37% 29.68 in 10.0 mi South 23.0 mph 34.5 mph N/A   Clear
2:52 PM 100.0 °F 107.0 °F 69.1 °F 37% 29.68 in 10.0 mi South 21.9 mph 31.1 mph N/A   Clear
3:52 PM 102.0 °F 107.3 °F 66.9 °F 32% 29.67 in 10.0 mi SSW 23.0 mph 29.9 mph N/A   Clear
4:52 PM 100.0 °F 107.0 °F 69.1 °F 37% 29.66 in 10.0 mi South 25.3 mph 33.4 mph N/A   Clear
5:52 PM 100.0 °F 105.6 °F 68.0 °F 35% 29.65 in 10.0 mi South 21.9 mph 32.2 mph N/A   Clear
6:52 PM 98.1 °F 103.0 °F 68.0 °F 37% 29.65 in 10.0 mi South 21.9 mph 31.1 mph N/A   Clear
7:52 PM 95.0 °F 99.5 °F 68.0 °F 41% 29.67 in 10.0 mi South 15.0 mph 26.5 mph N/A   Clear
8:52 PM 91.9 °F 95.4 °F 66.9 °F 44% 29.68 in 10.0 mi South 15.0 mph - N/A   Clear
9:52 PM 90.0 °F 92.8 °F 66.9 °F 46% 29.70 in 10.0 mi South 12.7 mph - N/A   Clear
10:52 PM 87.1 °F 90.6 °F 68.0 °F 53% 29.72 in 10.0 mi SSE 12.7 mph - N/A   Clear
11:52 PM 86.0 °F 90.1 °F 69.1 °F 57% 29.73 in 10.0 mi South 15.0 mph - N/A   Clear